STARLINK-37002

Last updated on Sun Apr 12 2026 00:02:06 GMT+0000 (Coordinated Universal Time)

1 68164U 26049Y 26101.50002315 -.00086592 00000+0 -58501-3 0 9995 2 68164 97.2842 122.5011 0001048 98.5776 206.3995 15.75212872 5892
UTC large
Height (km)
Speed (km/s)
/
Latitude / Longitude
Inclination (degrees)
Orbital Period (minutes)
Azimuth
Elevation
Range (km)
Doppler Factor

Next 0 passes for location: London (51.5072 / 0.1276)

Sorry there are no passes over London.
STARLINK-37002